D3121 Weather Reports


time (UTC)temp
C
wind
direction
speed
KPH
gust
KPH
rain 1hr
cm
rain 24hr
cm
rain mn
cm
humidity
%
barometer
mb
20260510194116 16 0 4.8 9.7 0.00 0.36 0.13 69 1011.3
20260510193116 16 0 8.0 16.1 0.00 0.36 0.13 72 1011.4
20260510192116 16 338 8.0 12.9 0.00 0.38 0.13 74 1011.5
20260510191217 16 0 3.2 6.4 0.00 0.41 0.13 76 1011.4
20260510190116 16 338 9.7 11.3 0.00 0.43 0.13 75 1011.3
20260510185116 16 0 6.4 8.0 0.00 0.46 0.13 78 1011.3
20260510184116 15 315 4.8 9.7 0.00 0.48 0.13 80 1011.4
20260510183136 15 158 1.6 6.4 0.03 0.51 0.13 85 1011.4
20260510182116 14 270 4.8 6.4 0.03 0.53 0.13 86 1011.5
20260510181116 13 338 4.8 6.4 0.03 0.56 0.13 88 1011.4
20260510180136 13 338 8.0 12.9 0.03 0.61 0.13 90 1011.5
20260510175156 13 338 4.8 6.4 0.08 0.64 0.13 91 1011.6
20260510174116 13 338 4.8 8.0 0.10 0.66 0.13 91 1011.5
20260510173116 13 0.0 0.0 0.08 0.66 0.10 91 1011.4
20260510172116 13 338 3.2 4.8 0.08 0.69 0.10 91 1011.6
20260510171116 13 338 6.4 8.0 0.08 0.71 0.10 89 1011.3
20260510170116 14 0.0 0.0 0.08 0.71 0.10 87 1011.7
20260510165116 15 315 3.2 6.4 0.03 0.69 0.05 81 1011.6
20260510164116 15 45 1.6 3.2 0.00 0.69 0.03 75 1011.5
20260510163116 15 135 1.6 6.4 0.00 0.71 0.03 75 1011.5
20260510162116 15 0.0 1.6 0.00 0.71 0.03 77 1011.6
20260510161116 15 0 1.6 3.2 0.00 0.74 0.03 78 1011.6
20260510160116 14 0 1.6 4.8 0.00 0.76 0.03 80 1011.7
20260510155116 13 315 3.2 6.4 0.00 0.79 0.03 81 1011.5
20260510154116 13 0.0 0.0 0.00 0.81 0.03 83 1011.4
20260510153116 13 113 1.6 3.2 0.00 0.84 0.03 84 1011.4
20260510152136 12 113 1.6 3.2 0.00 0.86 0.03 86 1011.4
20260510151116 12 113 1.6 3.2 0.00 0.86 0.03 86 1011.4
20260510150136 12 113 6.4 8.0 0.00 0.89 0.03 87 1011.4
20260510145116 12 90 3.2 6.4 0.00 0.89 0.03 88 1011.4
20260510144116 12 113 8.0 9.7 0.00 0.91 0.03 88 1011.4
20260510143116 11 135 6.4 8.0 0.00 0.91 0.03 91 1011.3
20260510142116 11 135 6.4 8.0 0.00 0.91 0.03 92 1011.4
20260510141136 11 135 6.4 11.3 0.00 0.91 0.03 94 1011.3
20260510140116 11 113 4.8 8.0 0.00 0.91 0.03 96 1011.4
20260510135116 10 135 4.8 6.4 0.00 0.91 0.03 96 1011.4
20260510134116 10 113 6.4 6.4 0.00 0.91 0.03 97 1011.3
20260510133116 10 135 3.2 6.4 0.00 0.91 0.03 97 1011.3
20260510132116 10 135 3.2 3.2 0.00 0.91 0.03 97 1011.1
20260510131116 10 135 4.8 8.0 0.00 0.91 0.03 97 1011.1
20260510130116 9 113 6.4 8.0 0.00 0.91 0.03 98 1011.2
20260510125116 9 135 1.6 3.2 0.00 0.91 0.03 98 1011.3
20260510124116 8 0.0 1.6 0.00 0.91 0.03 98 1011.3
20260510123116 8 68 1.6 3.2 0.00 0.91 0.03 98 1011.4
20260510122116 8 0.0 0.0 0.00 0.91 0.03 98 1011.4
20260510121116 8 0.0 0.0 0.00 0.91 0.03 98 1011.3
20260510120116 8 0.0 0.0 0.00 0.91 0.03 97 1011.3
20260510115116 8 90 3.2 3.2 0.00 0.91 0.03 98 1011.0
20260510114136 8 0.0 0.0 0.00 0.91 0.03 98 1011.0
20260510113116 8 0.0 0.0 0.00 0.91 0.03 97 1011.1
20260510112136 8 0.0 0.0 0.00 0.91 0.03 97 1011.2
20260510111116 8 0.0 0.0 0.00 0.91 0.03 97 1011.0
20260510110116 7 0.0 0.0 0.00 0.91 0.03 98 1010.6
20260510105116 7 0.0 0.0 0.00 0.91 0.03 98 1010.6
20260510104116 7 0.0 0.0 0.00 0.91 0.03 97 1010.4
20260510103116 7 0.0 0.0 0.00 0.91 0.03 97 1010.4
20260510102116 7 0.0 1.6 0.00 0.91 0.03 97 1010.0
20260510101136 7 90 1.6 3.2 0.00 0.91 0.03 97 1009.5
20260510100116 7 90 6.4 9.7 0.00 0.91 0.03 97 1009.7
20260510095116 7 0.0 1.6 0.00 0.91 0.03 97 1009.6
20260510094115 7 315 1.6 3.2 0.00 0.91 0.03 97 1009.8
20260510093116 7 338 3.2 4.8 0.00 0.91 0.03 97 1009.5
20260510092116 7 0.0 0.0 0.00 0.91 0.03 97 1009.6
20260510091116 7 0.0 0.0 0.00 0.91 0.03 97 1009.7
20260510090116 7 45 1.6 3.2 0.00 0.91 0.03 97 1009.6
20260510085116 7 135 1.6 3.2 0.00 0.91 0.03 97 1009.9
20260510084115 7 90 1.6 3.2 0.00 0.91 0.03 97 1010.1
20260510083116 7 45 1.6 3.2 0.00 0.91 0.03 97 1009.9
20260510082116 7 90 3.2 6.4 0.00 0.91 0.03 97 1010.0
20260510081116 7 113 3.2 6.4 0.00 0.91 0.03 97 1010.1
20260510080116 7 90 3.2 6.4 0.00 0.91 0.03 97 1010.2
20260510075116 7 90 4.8 6.4 0.00 0.91 0.03 97 1010.0
20260510074136 6 90 4.8 6.4 0.00 0.91 0.03 97 1010.1
20260510073116 6 90 4.8 9.7 0.03 0.91 0.03 97 1010.0
20260510072116 6 90 6.4 8.0 0.03 0.91 0.03 97 1010.0
20260510071136 7 45 3.2 3.2 0.03 0.91 0.03 97 1009.9
20260510070115 7 0.0 0.0 0.03 0.91 0.03 97 1010.3
20260510065156 7 113 11.3 12.9 0.03 0.91 0.03 97 1010.0
20260510064116 6 90 6.4 8.0 0.03 0.91 0.03 97 1010.4
20260510063116 6 90 3.2 6.4 0.00 0.89 0.00 97 1010.4
20260510062116 7 90 6.4 8.0 0.00 0.89 0.00 97 1010.4
20260510061136 7 113 3.2 6.4 0.00 0.89 0.00 97 1010.3
20260510060116 6 90 6.4 8.0 0.00 0.89 0.00 97 1010.3
20260510055116 6 113 9.7 11.3 0.00 0.89 0.00 97 1010.4
20260510054116 6 90 9.7 11.3 0.00 0.89 0.00 97 1010.2
20260510053116 6 113 9.7 11.3 0.00 0.89 0.00 97 1010.2
20260510052116 6 90 4.8 8.0 0.00 0.89 0.00 97 1010.2
20260510051115 6 113 1.6 3.2 0.00 0.89 0.00 97 1010.4
20260510050116 6 113 6.4 8.0 0.00 0.89 0.00 97 1010.7
20260510045116 6 90 4.8 6.4 0.00 0.89 0.00 97 1010.7
20260510044116 6 113 9.7 11.3 0.00 0.89 0.00 97 1010.7
20260510043116 6 113 11.3 12.9 0.00 0.89 0.00 97 1010.7
20260510042115 6 135 11.3 14.5 0.00 0.89 0.00 97 1010.9
20260510041116 6 135 12.9 17.7 0.00 0.89 0.00 97 1010.8
20260510040116 6 113 9.7 11.3 0.00 0.89 0.00 97 1010.7
20260510035117 6 135 8.0 9.7 0.00 0.89 0.89 97 1010.7
20260510034117 6 90 8.0 9.7 0.00 0.89 0.89 97 1010.7
20260510033117 6 113 8.0 9.7 0.00 0.89 0.89 97 1010.7
20260510032117 6 113 6.4 9.7 0.00 0.89 0.89 97 1010.8
20260510031117 6 90 8.0 11.3 0.00 0.89 0.89 97 1011.1
20260510030116 6 113 8.0 9.7 0.00 0.89 0.89 97 1011.2
20260510025118 6 113 11.3 12.9 0.00 0.89 0.89 97 1011.3
20260510024116 6 113 8.0 11.3 0.00 0.89 0.89 97 1011.5
20260510023117 6 113 8.0 11.3 0.00 0.89 0.89 97 1011.6
20260510022117 6 113 9.7 11.3 0.00 0.89 0.89 97 1011.5
20260510021117 6 113 9.7 11.3 0.00 0.89 0.89 96 1011.6
20260510020116 6 90 9.7 12.9 0.00 0.89 0.89 96 1011.6
20260510015116 6 135 8.0 9.7 0.00 0.89 0.89 97 1011.7
20260510014116 6 135 12.9 17.7 0.00 0.89 0.89 97 1011.5
20260510013117 6 135 11.3 14.5 0.00 0.89 0.89 96 1011.6
20260510012137 6 113 11.3 14.5 0.00 0.89 0.89 96 1011.6
20260510011116 6 135 11.3 12.9 0.00 0.89 0.89 96 1011.7
20260510010116 6 113 9.7 11.3 0.00 0.89 0.89 96 1011.6
20260510005116 6 113 11.3 12.9 0.00 0.89 0.89 96 1011.6
20260510004137 6 135 11.3 14.5 0.00 0.89 0.89 96 1011.5
20260510003116 6 90 14.5 19.3 0.00 0.89 0.89 96 1011.2
20260510002116 6 135 12.9 14.5 0.00 0.89 0.89 96 1011.1
20260510001116 6 113 11.3 14.5 0.00 0.89 0.89 96 1010.9
20260510000116 6 113 14.5 17.7 0.00 0.89 0.89 95 1010.8
20260509235116 7 113 11.3 14.5 0.00 0.89 0.89 95 1010.6
20260509234116 7 135 11.3 14.5 0.00 0.89 0.89 95 1010.6
20260509233117 7 135 12.9 17.7 0.00 0.89 0.89 94 1010.5
20260509232157 7 113 11.3 14.5 0.00 0.89 0.89 94 1010.5
20260509231117 7 135 11.3 11.3 0.00 0.89 0.89 94 1010.3
20260509230137 7 135 12.9 14.5 0.00 0.89 0.89 94 1010.3
20260509225116 7 113 11.3 12.9 0.00 0.89 0.89 94 1010.3
20260509224116 7 113 12.9 14.5 0.00 0.89 0.89 94 1010.4
20260509223116 7 135 12.9 17.7 0.00 0.89 0.89 94 1010.3
20260509222116 7 135 16.1 20.9 0.03 0.89 0.89 94 1010.4
20260509221137 7 135 12.9 14.5 0.05 0.89 0.89 94 1010.5
20260509220116 7 113 11.3 14.5 0.08 0.89 0.89 93 1010.4
20260509215116 7 113 9.7 12.9 0.08 0.89 0.89 94 1010.5
20260509214116 7 135 8.0 9.7 0.10 0.89 0.89 94 1010.7
20260509213116 7 113 11.3 12.9 0.13 0.89 0.89 94 1010.6
20260509212116 7 135 16.1 22.5 0.10 0.86 0.86 94 1010.6
20260509211137 7 135 12.9 17.7 0.10 0.84 0.84 94 1010.7
20260509210116 7 135 11.3 14.5 0.10 0.81 0.81 94 1010.7
20260509205116 7 135 16.1 22.5 0.10 0.81 0.81 94 1010.6
20260509204117 7 113 8.0 9.7 0.13 0.79 0.79 94 1010.6
20260509203116 6 135 11.3 14.5 0.10 0.76 0.76 94 1010.6
20260509202116 6 135 16.1 19.3 0.13 0.76 0.76 94 1010.9
20260509201116 6 135 11.3 14.5 0.13 0.74 0.74 94 1010.9
20260509200137 6 113 6.4 8.0 0.13 0.71 0.71 94 1010.9
20260509195116 6 113 11.3 12.9 0.15 0.71 0.71 94 1010.9